User: anonymous
Location: Unspecified
(0.0000°N, 0.0000°E)
Time: 01:00:47
(UTC+02:00)
Language:

YAOGAN 3 - Orbit

View from above orbital plane
View from above orbital plane
View from above satellite
View from above satellite

Ground track
Ground track

The orbit data is extracted from the following two-line orbital elements,

1 32289U 07055A   14205.64581418 -.00000064  00000-0 -14296-5 0  4196
2 32289 097.9395 197.3045 0001403 104.1150 256.0195 14.81917028362074
Epoch (UTC): 24 July 2014 15:29:58
Eccentricity: 0.0001403
inclination: 97.9395°
perigee height: 622 km
apogee height: 624 km
right ascension of ascending node: 197.3045°
argument of perigee: 104.1150°
revolutions per day: 14.81917028
mean anomaly at epoch: 256.0195°
orbit number at epoch: 36207

The dashed part of the orbit path shows where the satellite is in the earth's shadow,  

DLR